Regional Weather Roundup
Issued by NWS

Home | Current Version | Previous Version | Text Only | Print | Product List | Glossary Off
Versions: 1 2 3 4 5 6 7 8 9 10 11 12 13 14 15 16 17 18 19 20 21 22 23 24 25 26 27 28 29 30 31 32 33 34 35 36 37 38 39 40 41 42 43 44 45 46 47 48 49 50

000
ASUS45 KCYS 221410
RWRWY

WYOMING REGIONAL WEATHER ROUNDUP
NATIONAL WEATHER SERVICE CHEYENNE WY
800 AM MDT FRI SEP 22 2017

NOTE:  "FAIR" INDICATES FEW OR NO CLOUDS BELOW 12,000 FEET
WITH NO SIGNIFICANT WEATHER AND/OR OBSTRUCTIONS TO VISIBILITY.

WYZ001-221500-
YELLOWSTONE NATIONAL PARK

CITY           SKY/WX    TMP DP  RH WIND       PRES   REMARKS
LK YELLOWSTONE NOT AVBL
W YELLOWSTONE  NOT AVBL

$$
WYZ002>013-054>058-071-098>099-221500-
NORTHERN WYOMING

CITY           SKY/WX    TMP DP  RH WIND       PRES   REMARKS
JACKSON        CLOUDY    35  34  96 CALM      29.82S
CODY           LGT SNOW  32  32 100 NE7       29.94S FOG     WCI  26
GREYBULL       LGT RAIN  40  39  97 W9        29.92R WCI  34
WORLAND        LGT RAIN  39  38  96 W6        29.94R WCI  35
SHERIDAN       CLOUDY    42  39  89 NW13      29.96S
BUFFALO        CLOUDY    40  36  86 NW17G24   29.95R WCI  31
GILLETTE       CLOUDY    45  34  65 N18       29.89S
HULETT         CLOUDY    46  36  66 N9        29.89S
NEWCASTLE      FAIR      45  37  76 N5        29.82R

$$
WYZ014>020-022>026-101>103-221500-
CENTRAL WYOMING

CITY           SKY/WX    TMP DP  RH WIND       PRES   REMARKS
BIG PINEY      CLOUDY    40  35  83 SE13      29.85R WCI  32
PINEDALE       CLOUDY    37  36  93 E9        29.87R WCI  31
DUBOIS         SNOW      32  32 100 SE16G23   29.83R VSB 1/4 WCI  21
LANDER           N/A    N/A N/A N/A MISG      29.93R
RIVERTON       LGT RAIN  38  37  97 NE3       29.93R
CASPER         CLOUDY    39  32  76 NE3       29.93R
DOUGLAS        FAIR      40  32  73 NW16      29.89R WCI  31

$$
WYZ021-027>030-104>119-221500-
SOUTHERN WYOMING

CITY           SKY/WX    TMP DP  RH WIND       PRES   REMARKS
EVANSTON       CLOUDY    34  34 100 SW8       29.85R WCI  27
KEMMERER         N/A     36  36 100 CALM      29.86R
FORT BRIDGER   CLOUDY    40  40 100 S8        29.88R WCI  34
ROCK SPRINGS   CLOUDY    37  36  96 E12       29.88F WCI  29
DIXON          FAIR      46  35  66 NW20G29   29.92R
RAWLINS        FAIR      41  31  67 W9        29.91R
SARATOGA       FAIR      43  34  70 N8        29.91R
LARAMIE        FAIR      59  24  26 S16       29.87F
CHEYENNE       FAIR      45  36  70 W8        29.86R
TORRINGTON     FAIR      44  34  67 W9        29.83R
PINE BLUFFS    FAIR      43  37  81 MISG      29.84R

$$



USA.gov is the U.S. government's official web portal to all federal, state and local government web resources and services.